AirNav   Air Wisconsin pilot careers
 
 375 users online  

UT54 Crystal Springs Ranch Airport
Leeds, Utah, USA

GOING TO LEEDS?


FAA INFORMATION EFFECTIVE 16 AUGUST 2018

Location

FAA Identifier: UT54
Lat/Long: 37-15-11.9350N / 113-20-02.8170W
37-15.198917N / 113-20.046950W
37.2533153 / -113.3341158
(estimated)
Elevation: 3671 ft. / 1118.9 m (surveyed)
Variation: 14E (1985)
From city: 1 mile NE of LEEDS, UT
Time zone: UTC -6 (UTC -7 during Standard Time)
Zip code: 84737

Airport Operations

Airport use: Private use. Permission required prior to landing
Activation date: 08/1985
Control tower: no
ARTCC: LOS ANGELES CENTER
FSS: CEDAR CITY FLIGHT SERVICE STATION
Attendance: UNATNDD
Wind indicator: yes
Segmented circle: no

Airport Communications

WX AWOS-3PT at SGU (16 nm SW): 135.075 (435-634-0940)

Nearby radio navigation aids

VOR radial/distance  VOR name  Freq  Var
UTIr020/16.7ST GEORGE VOR/DME108.6012E
EHKr186/34.4ENOCH VOR/DME117.3016E

 
NDB name  Hdg/Dist  Freq  Var  ID
COLORADO CITY306/23.540313EAZC .- --.. -.-.

Airport Services

Runway Information

Runway 3/21

Dimensions: 2600 x 80 ft. / 792 x 24 m
Surface: dirt
RUNWAY 3  RUNWAY 21
Traffic pattern: leftleft
Obstructions: 25 ft. pline, 500 ft. from runway25 ft. pline, 1000 ft. from runway

Airport Ownership and Management from official FAA records

Ownership: Privately-owned
Owner: ALAN L. HOWARD
P.O. BOX 460630
LEEDS, UT 84746
Phone 435-879-2215
Manager: ALAN L. HOWARD
950 NORTH MAIN ST.
LEEDS, UT 84746
Phone 435-879-2215

Airport Operational Statistics

Aircraft based on the field: 1
Single engine airplanes: 1
    

Instrument Procedures

There are no published instrument procedures at UT54.

Some nearby airports with instrument procedures:

KSGU - St George Regional Airport (16 nm SW)
KAZC - Colorado City Municipal Airport (23 nm SE)
KCDC - Cedar City Regional Airport (29 nm NE)
KKNB - Kanab Municipal Airport (41 nm E)
U55 - Panguitch Municipal Airport (57 nm NE)
 
Loc | Ops | Rwys | IFR | FBO | Links
Com | Nav | Svcs | Stats | Notes


 
Area around UT54 (Crystal Springs Ranch Airport)
 
Road maps at: MapQuest Bing Google
 
Aerial photo
No photo
 
Sectional chart

 
Airport distance calculator
Flying to Crystal Springs Ranch Airport? Find the distance to fly.

From to UT54

Sunrise and sunset
Times for 22-Aug-2018
 Local
(UTC-6)
 Zulu
(UTC)
Morning civil twilight06:2912:29
Sunrise06:5712:57
Sunset20:1602:16
Evening civil twilight20:4302:43

Current date and time
Zulu (UTC)  22-Aug-2018 07:38:55
Local (UTC-6)  22-Aug-2018 01:38:55
 
METAR
KSGU 
16nm SW 
220714Z AUTO 11019G25KT 10SM OVC075 24/17 A3008 RMK AO2 LTG DSNT ALQDS TSE08
KAZC 
23nm SE 
220720Z AUTO 10010KT 4SM +TSRA SCT024 BKN030 OVC037 17/16 A3027 RMK AO2 LTG DSNT ALQS P0021
KCDC 
29nm NE 
220653Z AUTO 20010KT 10SM CLR 20/12 A3019 RMK AO2 LTG DSNT S AND SW SLP134 T02000122 403170183
TAF
KSGU 
16nm SW 
220542Z 2206/2306 12016G22KT P6SM VCTS SCT100CB BKN120 FM220700 11010KT P6SM VCSH FEW100 SCT140 FM222100 22011G20KT P6SM VCSH SCT070 BKN110
NOTAMs
Click for the latest NOTAMs
NOTAMs are issued by the DoD/FAA and will open in a separate window not controlled by AirNav.

 

 
 

Would you like to see your business listed on this page?

 If your business provides an interesting product or service to pilots, flight crews, aircraft, or users of the Crystal Springs Ranch Airport, you should consider listing it here.  To start the listing process, click on the button below
 
Add a business
 

Other Pages about Crystal Springs Ranch Airport

Update a link
 
Copyright © AirNav, LLC. All rights reserved. Privacy Policy  Contact